TimeEDT,TemperatureF,Dew PointF,Humidity,Sea Level PressureIn,VisibilityMPH,Wind Direction,Wind SpeedMPH,Gust SpeedMPH,PrecipitationIn,Events,Conditions,WindDirDegrees,DateUTC
12:56 AM,63.0,60.1,90,30.08,6.0,Calm,Calm,-,N/A,,Mostly Cloudy,0,2013-09-10 04:56:00
1:56 AM,64.0,61.0,90,30.06,6.0,South,4.6,-,N/A,,Clear,170,2013-09-10 05:56:00
2:56 AM,66.0,62.1,87,30.06,6.0,Calm,Calm,-,0.01,,Clear,0,2013-09-10 06:56:00
3:56 AM,66.9,63.0,87,30.06,5.0,SSW,3.5,-,N/A,,Clear,210,2013-09-10 07:56:00
4:56 AM,68.0,64.0,87,30.08,5.0,SSW,5.8,-,N/A,,Partly Cloudy,210,2013-09-10 08:56:00
5:56 AM,69.1,64.9,87,30.09,4.0,Calm,Calm,-,N/A,,Clear,0,2013-09-10 09:56:00
6:56 AM,66.9,64.9,93,30.10,3.0,South,4.6,-,N/A,,Mostly Cloudy,180,2013-09-10 10:56:00
7:05 AM,68.0,64.4,88,30.13,2.0,South,3.5,-,N/A,,Mostly Cloudy,190,2013-09-10 11:05:00
7:13 AM,68.0,64.4,88,30.13,1.8,South,3.5,-,N/A,,Mostly Cloudy,180,2013-09-10 11:13:00
7:56 AM,69.1,64.9,87,30.10,1.8,SSW,4.6,-,N/A,,Clear,210,2013-09-10 11:56:00
8:04 AM,69.8,66.2,88,30.13,2.0,SSW,4.6,-,N/A,,Partly Cloudy,210,2013-09-10 12:04:00
8:56 AM,72.0,66.9,84,30.11,3.0,SW,9.2,-,N/A,,Haze,230,2013-09-10 12:56:00
9:56 AM,75.0,69.1,82,30.12,4.0,SW,9.2,-,N/A,,Haze,220,2013-09-10 13:56:00
10:56 AM,78.1,69.1,74,30.12,5.0,SW,12.7,-,N/A,,Haze,220,2013-09-10 14:56:00
11:06 AM,78.8,69.8,74,30.14,5.0,SSW,12.7,20.7,N/A,,Haze,210,2013-09-10 15:06:00
11:33 AM,78.8,69.8,74,30.14,5.0,SW,10.4,20.7,N/A,,Haze,220,2013-09-10 15:33:00
11:43 AM,78.8,69.8,74,30.13,5.0,SW,11.5,-,N/A,,Haze,230,2013-09-10 15:43:00
11:53 AM,80.6,71.6,74,30.14,5.0,SW,11.5,-,N/A,,Haze,220,2013-09-10 15:53:00
11:56 AM,80.1,71.1,74,30.10,5.0,SW,10.4,-,N/A,,Haze,230,2013-09-10 15:56:00
12:56 PM,84.0,72.0,67,30.10,6.0,SSW,9.2,-,N/A,,Haze,210,2013-09-10 16:56:00
1:56 PM,84.9,71.1,63,30.09,6.0,SW,16.1,21.9,N/A,,Haze,230,2013-09-10 17:56:00
2:56 PM,86.0,72.0,63,30.08,6.0,WSW,13.8,19.6,N/A,,Haze,240,2013-09-10 18:56:00
3:56 PM,84.9,72.0,65,30.07,6.0,SW,9.2,-,N/A,,Haze,220,2013-09-10 19:56:00
4:56 PM,86.0,72.0,63,30.07,6.0,SW,10.4,-,N/A,,Haze,230,2013-09-10 20:56:00
5:56 PM,84.9,73.0,67,30.07,5.0,SW,9.2,-,N/A,,Haze,220,2013-09-10 21:56:00
6:56 PM,82.0,73.0,74,30.08,5.0,SW,6.9,-,N/A,,Haze,220,2013-09-10 22:56:00
7:56 PM,79.0,73.0,82,30.09,5.0,SSW,5.8,-,N/A,,Haze,210,2013-09-10 23:56:00
8:56 PM,79.0,72.0,79,30.11,5.0,SW,8.1,-,N/A,,Haze,220,2013-09-11 00:56:00
9:56 PM,78.1,72.0,81,30.13,5.0,SW,9.2,-,N/A,,Haze,230,2013-09-11 01:56:00
10:56 PM,75.9,72.0,87,30.14,4.0,SW,6.9,-,N/A,,Clear,230,2013-09-11 02:56:00
11:56 PM,75.0,71.1,87,30.14,3.0,SW,4.6,-,N/A,,Clear,220,2013-09-11 03:56:00